Volver al catálogo

STARLINK-31309

ActivoComunicacionesVLEO
NORAD 59164·PAYLOAD·🇺🇸 United States

Lanzado Mar 4, 2024 desde Cape Canaveral Space Force Station

Loading…

Próximos Pases (próximas 24 horas)

TLE

ActualizadoSource: CelesTrak SupGP

Época: Sep 14, 2026, 22:46 UTC

1 59164C 24044N   26257.94909722 -.00021672  00000+0 -78523-3 0  2577
2 59164  42.9996 118.0403 0001431 273.0470  31.4568 15.27578144    17

Sigue STARLINK-31309 en tiempo real con AllMySat

Download on the App Store